Weather History for KSMP - November, 2010

Change the Weather History Date:

Thursday, November 4, 2010

  Actual Average Record
Temperature  
Mean Temperature 41 °F -  
Max Temperature 48 °F 38 °F 48 °F (2001)
Min Temperature 36 °F 29 °F 17 °F (2003)
Degree Days  
Heating Degree Days 24    
Moisture  
Dew Point 33 °F    
Average Humidity 72    
Maximum Humidity 86    
Minimum Humidity 59    
Precipitation  
Precipitation 0.00 in - - ()
Sea Level Pressure  
Sea Level Pressure 30.19 in    
Wind  
Wind Speed 6 mph (ENE)    
Max Wind Speed 10 mph    
Max Gust Speed 20 mph    
Visibility 10 miles    
Events      
Averages and records for this station are not official NWS values.
T = Trace of Precipitation, MM = Missing Value Source: NWS Daily Summary

Daily Weather History Graph

Daily Weather History Graph

Search for Another Location

Airport or City:

Trip Planner

Search our weather history database for the weather conditions in past years. The results will help you decide how hot, cold, wet, or windy it might be!

Date:

Astronomy

Nov. 04, 2010 Rise Set
Actual Time 7:53 AM PDT 5:43 PM PDT
Civil Twilight 7:20 AM PDT 6:16 PM PDT
Nautical Twilight 6:44 AM PDT 6:52 PM PDT
Astronomical Twilight 6:08 AM PDT 7:28 PM PDT
Moon 6:09 AM PDT (11/4) 4:31 PM PDT (11/4)
Length of Visible Light 10h 55m
Length of Day
9h 50m
Waning Crescent, 3% of the Moon is Illuminated
Nov 4
Waning Crescent
Nov 5
New
Nov 13
First Quarter
Nov 21
Full
Nov 28
Last Quarter

Hourly Weather History & Observations

Time (PDT) Temp. Windchill Dew Point Humidity Pressure Visibility Wind Dir Wind Speed Gust Speed Precip Events Conditions
12:56 AM 39.9 °F 35.1 °F 30.9 °F 70% 30.28 in 10.0 mi Variable 6.9 mph - N/A   Clear
1:56 AM 39.9 °F 35.8 °F 30.9 °F 70% 30.27 in 10.0 mi Variable 5.8 mph - N/A   Clear
2:56 AM 37.9 °F 33.5 °F 30.9 °F 76% 30.28 in 10.0 mi Variable 5.8 mph - N/A   Clear
3:56 AM 36.0 °F 31.1 °F 30.9 °F 82% 30.29 in 10.0 mi Variable 5.8 mph - N/A   Clear
4:56 AM 37.0 °F 32.4 °F 30.9 °F 79% 30.27 in 10.0 mi Variable 5.8 mph - N/A   Clear
5:56 AM 37.0 °F 32.4 °F 30.9 °F 79% 30.27 in 10.0 mi Variable 5.8 mph - N/A   Clear
6:56 AM 36.0 °F 31.1 °F 30.9 °F 82% 30.27 in 10.0 mi NE 5.8 mph - N/A   Clear
7:56 AM 37.9 °F 33.5 °F 30.9 °F 76% 30.26 in 10.0 mi Variable 5.8 mph - N/A   Clear
8:56 AM 39.0 °F 34.0 °F 30.9 °F 73% 30.27 in 10.0 mi Variable 6.9 mph - N/A   Clear
9:56 AM 42.1 °F 37.7 °F 32.0 °F 67% 30.27 in 10.0 mi Variable 6.9 mph - N/A   Clear
10:56 AM 44.1 °F 40.8 °F 32.0 °F 63% 30.25 in 10.0 mi Variable 5.8 mph - N/A   Clear
11:56 AM 45.0 °F 41.2 °F 32.0 °F 60% 30.22 in 10.0 mi Variable 6.9 mph - N/A   Clear
12:56 PM 46.9 °F - 33.1 °F 59% 30.22 in 10.0 mi Variable 4.6 mph - N/A   Clear
1:56 PM 46.9 °F - 34.0 °F 61% 30.18 in 10.0 mi Variable 5.8 mph - N/A   Clear
2:56 PM 46.9 °F - 36.0 °F 66% 30.15 in 10.0 mi Variable 5.8 mph - N/A   Clear
3:56 PM 46.0 °F 41.0 °F 36.0 °F 68% 30.14 in 10.0 mi East 10.4 mph 19.6 mph N/A   Clear
4:56 PM 46.0 °F 43.1 °F 36.0 °F 68% 30.12 in 10.0 mi Variable 5.8 mph - N/A   Clear
5:56 PM 44.1 °F 40.1 °F 35.1 °F 71% 30.11 in 10.0 mi Variable 6.9 mph - N/A   Clear
6:56 PM 44.1 °F 40.8 °F 36.0 °F 73% 30.10 in 10.0 mi Variable 5.8 mph - N/A   Clear
7:56 PM 43.0 °F 38.2 °F 35.1 °F 74% 30.09 in 10.0 mi East 8.1 mph 17.3 mph N/A   Clear
8:56 PM 42.1 °F 37.7 °F 35.1 °F 76% 30.09 in 10.0 mi Variable 6.9 mph - N/A   Clear
9:56 PM 42.1 °F 37.1 °F 35.1 °F 76% 30.06 in 10.0 mi ENE 8.1 mph - N/A   Partly Cloudy
10:56 PM 42.1 °F 37.7 °F 35.1 °F 76% 30.04 in 10.0 mi Variable 6.9 mph - N/A   Clear
11:56 PM 39.0 °F 35.7 °F 35.1 °F 86% 30.01 in 10.0 mi Variable 4.6 mph - N/A   Clear